一网星座-0601星 (ONEWEB-0601 )

导读 | 豆包AI

ONEWEB-0601是英国于2022年12月8日发射的卫星,隶属于OneWeb低轨卫星互联网星座项目。该星座旨在构建全球覆盖的卫星宽带通信网络,为偏远地区、海陆空移动场景提供高速互联网接入服务。这颗卫星入轨后,进一步扩充了OneWeb星座的在轨服务能力,推进了其全球组网布局,助力填补全球数字服务覆盖缺口。

基本信息
目录编号:
54665
目录名称:
ONEWEB-0601
国际标识:
2022-166Z
轨道中心:
EARTH
卫星名称:
一网星座-0601星
卫星全名:
一网星座-0601星 (ONEWEB-0601 )
卫星状态:
在轨 (已飞行1239 天)
发射日期:
2022-12-08 UTC
国别 :
英国 (GB)
星等 :
--
轨道信息
数据来源 国际轨道数据 AOE轨道数据
星历时间 2026-04-30T05:22:40+0800
11小时前
查看轨道信息
2026-04-26T03:00:00+0800
4天前
查看轨道信息
半长轴 7555.898km 7555.899km
偏心率 0.0002066 0.0001708
轨道倾角 87.922° 87.922°
近地点辐角 105.746° 104.517°
升交点赤经 253.611° 254.428°
平近点角 254.391° 201.099°
近地点 1176.199km 1176.471km
远地点 1179.323km 1179.053km
周期 108.940分钟 108.940分钟
每日圈数 13.218242 13.218238
详细信息
平衡模式:
三轴稳定
覆盖范围:
全球
运营商:
一网卫星公司
运营商所在国:
英国
制造商(研发单位):
一网卫星公司
制造商所在国:
英国
使用方式:
暂无
卫星简介
OneWeb卫星网络由648颗重约125公斤的微型卫星组成,运行在1200公里的轨道上。 每颗卫星都能够提供至少每秒8千兆位的吞吐量,以使用其高吞吐量的Ku频段有效载荷为家庭和移动平台提供互联网接入。该卫星仍在工作。
2D轨道图
3D轨道图
轨道高度分析图
轨道倾角分析图
轨道综合分析图
查看轨道综合分析图